This demonstration page uses our WeatherBlox Daily Observations layout. Learn more.

Left ArrowRight Arrow

39.12711, -84.51439

Hourly Observations for July 9, 2018

Temp ( °F °C ) Dew Point ( °F °C ) Humidity (%) Winds ( mph kmh ) Pressure ( in mb ) Visibility ( mi km ) Precip ( " mm )
12:53 am 00:53 Mostly Clear 69 20.6 68 20 96 96 Calm 30.23 1024 10 16 0.00 0.00
1:53 am 01:53 Clear 68 20 67 19.4 96 96 Calm 30.23 1024 10 16 0.00 0.00
2:53 am 02:53 Clear 68 20 67 19.4 96 96 Calm 30.23 1024 10 16 0.00 0.00
3:53 am 03:53 Clear 67 19.4 67 19.4 100 100 Calm 30.24 1024 9 14 0.00 0.00
4:53 am 04:53 Clear 66 18.9 66 18.9 100 100 Calm 30.24 1024 9 14 0.00 0.00
5:53 am 05:53 Mostly Cloudy 66 18.9 65 18.3 96 96 Calm 30.24 1024 9 14 0.00 0.00
6:53 am 06:53 Mostly Cloudy 67 19.4 66 18.9 97 97 Calm 30.25 1024 10 16 0.00 0.00
7:53 am 07:53 Partly Cloudy 70 21.1 69 20.6 97 97 Calm 30.25 1024 10 16 0.00 0.00
8:53 am 08:53 Partly Cloudy 74 23.3 70 21.1 88 88 Calm 30.26 1025 10 16 0.00 0.00
9:53 am 09:53 Mostly Sunny 80 26.7 70 21.1 71 71 S 3 6 30.25 1024 10 16 0.00 0.00
10:53 am 10:53 Mostly Sunny 83 28.3 69 20.6 63 63 S 3 6 30.24 1024 10 16 0.00 0.00
11:53 am 11:53 Sunny 87 30.6 69 20.6 55 55 Calm 30.23 1024 10 16 0.00 0.00
12:53 pm 12:53 Mostly Cloudy 87 30.6 67 19.4 51 51 W 7 11 30.22 1023 10 16 0.00 0.00
1:53 pm 13:53 Mostly Cloudy 91 32.8 67 19.4 45 45 NW 5 7 30.19 1023 10 16 0.00 0.00
2:53 pm 14:53 Mostly Cloudy 90 32.2 68 20 48 48 VRB 7 11 30.17 1022 10 16 0.00 0.00
3:53 pm 15:53 Mostly Cloudy 91 32.8 68 20 47 47 W 3 6 30.16 1021 10 16 0.00 0.00
4:53 pm 16:53 Mostly Cloudy 92 33.3 69 20.6 47 47 WNW 7 11 30.15 1021 10 16 0.00 0.00
5:53 pm 17:53 Mostly Cloudy 91 32.8 69 20.6 49 49 VRB 7 11 30.14 1021 10 16 0.00 0.00
6:53 pm 18:53 Partly Cloudy 90 32.2 69 20.6 50 50 NNW 8 13 30.13 1020 10 16 0.00 0.00
7:53 pm 19:53 Sunny 89 31.7 67 19.4 48 48 NW 6 9 30.13 1020 10 16 0.00 0.00
8:53 pm 20:53 Sunny 85 29.4 67 19.4 55 55 NNW 5 7 30.13 1020 10 16 0.00 0.00
9:53 pm 21:53 Clear 74 23.3 70 21.1 88 88 Calm 30.13 1020 10 16 0.00 0.00
10:53 pm 22:53 Clear 73 22.8 69 20.6 87 87 Calm 30.14 1021 10 16 0.00 0.00
11:53 pm 23:53 Clear 71 21.7 69 20.6 94 94 Calm 30.14 1021 10 16 0.00 0.00

Powered by AerisWeather